| time (UTC) | temp F | wind direction | speed MPH | gust MPH | rain 1hr in | rain 24hr in | rain mn in | humidity % | barometer mb |
| 20260504050738 | 54 | 0.0 | 0.0 | 0.00 | 1.10 | 0.00 | 93 | 1013.3 | |
| 20260504045737 | 54 | 343 | 1.0 | 3.0 | 0.00 | 1.10 | 0.00 | 93 | 1013.2 |
| 20260504044803 | 54 | 0.0 | 1.0 | 0.00 | 1.10 | 0.00 | 93 | 1013.2 | |
| 20260504043738 | 54 | 0.0 | 0.0 | 0.00 | 1.10 | 0.00 | 93 | 1013.2 | |
| 20260504042707 | 54 | 295 | 2.0 | 2.0 | 0.00 | 1.10 | 0.00 | 92 | 1013.2 |
| 20260504041737 | 54 | 0.0 | 0.0 | 0.00 | 1.10 | 0.00 | 93 | 1013.2 | |
| 20260504040737 | 55 | 0.0 | 0.0 | 0.00 | 1.10 | 0.00 | 92 | 1013.2 | |
| 20260504035737 | 55 | 0.0 | 2.0 | 0.00 | 1.10 | 0.00 | 92 | 1013.2 | |
| 20260504034737 | 55 | 0.0 | 3.0 | 0.00 | 1.10 | 0.00 | 92 | 1013.2 | |
| 20260504033737 | 56 | 0.0 | 1.0 | 0.00 | 1.10 | 0.00 | 92 | 1013.1 | |
| 20260504032737 | 56 | 0.0 | 0.0 | 0.00 | 1.10 | 0.00 | 92 | 1013.1 | |
| 20260504031738 | 55 | 0.0 | 0.0 | 0.00 | 1.26 | 0.00 | 92 | 1013.2 | |
| 20260504030737 | 54 | 0.0 | 0.0 | 0.00 | 1.42 | 0.00 | 92 | 1013.1 | |
| 20260504025758 | 55 | 0.0 | 0.0 | 0.00 | 1.57 | 0.00 | 92 | 1013.1 | |
| 20260504024738 | 53 | 0.0 | 0.0 | 0.00 | 1.57 | 0.00 | 92 | 1013.1 | |
| 20260504023738 | 53 | 0.0 | 0.0 | 0.00 | 1.57 | 0.00 | 92 | 1013.1 | |
| 20260504022738 | 54 | 0.0 | 0.0 | 0.00 | 1.57 | 0.00 | 92 | 1013.1 | |
| 20260504021737 | 54 | 0.0 | 0.0 | 0.00 | 1.65 | 0.00 | 92 | 1013.0 | |
| 20260504020742 | 54 | 0.0 | 0.0 | 0.00 | 1.65 | 0.00 | 92 | 1012.9 | |
| 20260504015738 | 54 | 0.0 | 0.0 | 0.00 | 1.65 | 0.00 | 92 | 1012.9 | |
| 20260504014803 | 55 | 0.0 | 0.0 | 0.00 | 1.65 | 0.00 | 92 | 1013.0 | |
| 20260504013738 | 55 | 0.0 | 0.0 | 0.00 | 1.65 | 0.00 | 92 | 1013.0 | |
| 20260504012738 | 56 | 0.0 | 0.0 | 0.00 | 1.73 | 0.00 | 92 | 1013.0 | |
| 20260504011737 | 56 | 0.0 | 0.0 | 0.00 | 1.73 | 0.00 | 91 | 1013.1 | |
| 20260504010738 | 56 | 0.0 | 0.0 | 0.00 | 1.73 | 0.00 | 91 | 1013.1 | |
| 20260504005737 | 56 | 0.0 | 0.0 | 0.00 | 1.73 | 0.00 | 91 | 1013.0 | |
| 20260504004738 | 56 | 0.0 | 0.0 | 0.00 | 1.73 | 0.00 | 91 | 1013.0 | |
| 20260504003758 | 56 | 0.0 | 0.0 | 0.00 | 1.73 | 0.00 | 91 | 1013.0 | |
| 20260504002738 | 56 | 0.0 | 0.0 | 0.00 | 1.73 | 0.00 | 91 | 1013.0 | |
| 20260504001738 | 57 | 0.0 | 0.0 | 0.00 | 1.73 | 0.00 | 91 | 1013.1 | |
| 20260504000738 | 57 | 0.0 | 0.0 | 0.00 | 1.73 | 0.00 | 91 | 1013.1 | |
| 20260503235738 | 57 | 301 | 2.0 | 3.0 | 0.00 | 1.73 | 0.00 | 91 | 1013.1 |
| 20260503234738 | 57 | 320 | 3.0 | 5.0 | 0.00 | 1.73 | 0.00 | 91 | 1013.1 |
| 20260503233738 | 57 | 0.0 | 0.0 | 0.00 | 1.73 | 0.00 | 91 | 1013.2 | |
| 20260503232738 | 57 | 0.0 | 0.0 | 0.00 | 1.73 | 0.00 | 91 | 1013.2 | |
| 20260503231738 | 57 | 0.0 | 2.0 | 0.00 | 1.73 | 0.00 | 91 | 1013.2 | |
| 20260503230738 | 57 | 302 | 2.0 | 3.0 | 0.00 | 1.73 | 0.00 | 91 | 1013.1 |
| 20260503225738 | 57 | 0.0 | 2.0 | 0.00 | 1.73 | 0.00 | 91 | 1013.1 | |
| 20260503224823 | 57 | 302 | 1.0 | 2.0 | 0.00 | 1.73 | 0.00 | 90 | 1013.2 |
| 20260503223738 | 57 | 262 | 3.0 | 5.0 | 0.00 | 1.73 | 0.00 | 90 | 1013.0 |
| 20260503222738 | 57 | 313 | 4.0 | 6.0 | 0.00 | 1.81 | 0.00 | 90 | 1013.1 |
| 20260503221758 | 57 | 0.0 | 0.0 | 0.00 | 1.89 | 0.00 | 90 | 1013.0 | |
| 20260503220738 | 57 | 0.0 | 0.0 | 0.00 | 2.20 | 0.00 | 90 | 1012.9 | |
| 20260503215738 | 58 | 309 | 2.0 | 3.0 | 0.00 | 2.60 | 2.44 | 89 | 1012.8 |
| 20260503214743 | 58 | 315 | 2.0 | 3.0 | 0.00 | 2.83 | 2.44 | 89 | 1012.9 |
| 20260503213743 | 58 | 308 | 2.0 | 4.0 | 0.00 | 3.54 | 2.44 | 89 | 1012.9 |
| 20260503212738 | 58 | 286 | 2.0 | 3.0 | 0.00 | 4.57 | 2.44 | 89 | 1012.7 |
| 20260503211738 | 59 | 310 | 5.0 | 7.0 | 0.00 | 4.57 | 2.44 | 88 | 1012.8 |
| 20260503210758 | 59 | 321 | 6.0 | 7.0 | 0.00 | 4.57 | 2.44 | 88 | 1012.9 |
| 20260503205803 | 60 | 324 | 5.0 | 6.0 | 0.00 | 4.57 | 2.44 | 87 | 1012.9 |
| 20260503204738 | 60 | 324 | 3.0 | 5.0 | 0.00 | 4.57 | 2.44 | 86 | 1012.9 |
| 20260503203758 | 60 | 310 | 4.0 | 5.0 | 0.00 | 4.57 | 2.44 | 86 | 1012.7 |
| 20260503202738 | 60 | 307 | 3.0 | 5.0 | 0.00 | 4.57 | 2.44 | 86 | 1012.6 |
| 20260503201803 | 60 | 292 | 2.0 | 3.0 | 0.00 | 4.57 | 2.44 | 87 | 1012.6 |
| 20260503200738 | 60 | 299 | 2.0 | 5.0 | 0.00 | 4.57 | 2.44 | 87 | 1012.5 |
| 20260503195739 | 60 | 299 | 3.0 | 4.0 | 0.00 | 4.57 | 2.44 | 87 | 1012.4 |
| 20260503194738 | 60 | 0.0 | 0.0 | 0.00 | 4.57 | 2.44 | 86 | 1012.3 | |
| 20260503193738 | 60 | 300 | 2.0 | 2.0 | 0.00 | 4.57 | 2.44 | 85 | 1012.2 |
| 20260503192752 | 61 | 0.0 | 0.0 | 0.00 | 4.57 | 2.44 | 85 | 1012.0 | |
| 20260503191738 | 61 | 0.0 | 0.0 | 0.00 | 4.57 | 2.44 | 85 | 1012.0 | |
| 20260503190743 | 61 | 0.0 | 0.0 | 0.00 | 4.57 | 2.44 | 84 | 1011.9 | |
| 20260503185803 | 61 | 302 | 1.0 | 2.0 | 0.00 | 4.57 | 2.44 | 84 | 1011.8 |
| 20260503184738 | 61 | 297 | 2.0 | 3.0 | 0.00 | 4.57 | 2.44 | 83 | 1011.7 |
| 20260503183739 | 61 | 0.0 | 2.0 | 0.00 | 4.57 | 2.44 | 84 | 1011.6 | |
| 20260503182745 | 61 | 297 | 0.0 | 1.0 | 0.00 | 4.57 | 2.44 | 83 | 1011.5 |
| 20260503181739 | 61 | 311 | 0.0 | 1.0 | 0.00 | 4.57 | 2.44 | 83 | 1011.6 |
| 20260503180759 | 61 | 0.0 | 0.0 | 0.00 | 4.57 | 2.44 | 83 | 1011.5 | |
| 20260503175743 | 61 | 0.0 | 2.0 | 0.00 | 4.57 | 2.44 | 82 | 1011.4 | |
| 20260503174739 | 61 | 280 | 3.0 | 3.0 | 0.00 | 4.57 | 2.44 | 82 | 1011.3 |
| 20260503173739 | 61 | 273 | 0.0 | 3.0 | 0.00 | 4.57 | 2.44 | 82 | 1011.2 |
| 20260503172743 | 62 | 296 | 2.0 | 4.0 | 0.00 | 4.57 | 2.44 | 81 | 1011.2 |
| 20260503171739 | 62 | 288 | 1.0 | 5.0 | 0.00 | 4.57 | 2.44 | 82 | 1011.2 |
| 20260503170743 | 62 | 294 | 2.0 | 4.0 | 0.00 | 4.57 | 2.44 | 82 | 1011.3 |
| 20260503150739 | 63 | 318 | 1.0 | 4.0 | 0.00 | 4.57 | 2.44 | 83 | 1011.2 |
| 20260503130739 | 61 | 281 | 3.0 | 6.0 | 0.08 | 4.57 | 2.44 | 87 | 1011.9 |
| 20260503110739 | 59 | 308 | 5.0 | 7.0 | 0.39 | 4.33 | 2.20 | 90 | 1012.1 |
| 20260503080640 | 61 | 304 | 1.0 | 5.0 | 0.00 | 3.62 | 1.50 | 88 | 1011.7 |
| 20260503072639 | 60 | 0.0 | 3.0 | 0.00 | 3.62 | 1.50 | 90 | 1011.5 | |
| 20260503071645 | 60 | 0.0 | 2.0 | 0.16 | 3.62 | 1.50 | 90 | 1011.4 | |
| 20260503070700 | 59 | 296 | 2.0 | 3.0 | 0.16 | 3.62 | 1.50 | 90 | 1011.5 |